Location: Vienna
(48.2082°N, 16.3738°E)
Time: 07:44:43
(UTC+01:00)

ISS - Visible Passes

Search period start: 02 December 2021 00:00
Search period end: 12 December 2021 00:00
Orbit: 417 x 423 km, 51.6° (Epoch: 02 December)

Date Brightness Start Highest point End Pass type
(mag) Time Alt. Az. Time Alt. Az. Time Alt. Az.
02 Dec -3.9 17:58:41 10° WNW 18:02:06 75° NNE 18:02:15 73° NE visible
03 Dec -3.6 17:11:29 10° WNW 17:14:51 60° NNE 17:17:11 18° E visible
03 Dec -1.4 18:48:26 10° WNW 18:50:10 25° W 18:50:10 25° W visible
04 Dec -3.2 18:01:09 10° WNW 18:04:29 56° SSW 18:05:13 44° SSE visible
05 Dec -3.7 17:13:54 10° WNW 17:17:18 81° SSW 17:20:26 12° ESE visible
05 Dec -1.0 18:51:25 10° W 18:53:27 17° SW 18:53:27 17° SW visible
06 Dec -1.6 18:03:48 10° W 18:06:40 25° SW 18:08:55 13° SSE visible
07 Dec -2.2 17:16:23 10° WNW 17:19:33 37° SW 17:22:43 10° SE visible
08 Dec -0.4 18:07:44 10° WSW 18:08:36 11° SW 18:09:29 10° SSW visible
09 Dec -0.7 17:19:20 10° W 17:21:35 17° SW 17:23:49 10° S visible
